Regional Weather Roundup
Issued by NWS

Home | Current Version | Previous Version | Graphics & Text | Print | Product List | Glossary On
Versions: 1 2 3 4 5 6 7 8 9 10 11 12 13 14 15 16 17 18 19 20 21 22 23 24 25 26 27 28 29 30 31 32 33 34 35 36 37 38 39 40 41 42 43 44 45 46 47 48 49 50
567
ASUS43 KIND 221300
RWRIN

WEATHER ROUNDUP FOR INDIANA
NATIONAL WEATHER SERVICE INDIANAPOLIS IN
900 AM EDT SUN OCT 22 2017

NOTE: "FAIR" INDICATES FEW OR NO CLOUDS BELOW 12,000 FEET WITH NO
SIGNIFICANT WEATHER AND/OR OBSTRUCTIONS TO VISIBILITY.

* - STATION DOES NOT REPORT WEATHER SUCH AS PRECIPITATION OR FOG.

+ - STATION NOT QUALITY CONTROLLED BY THE NATIONAL WEATHER SERVICE.
    USE DATA WITH CAUTION...ESPECIALLY DEWPOINT AND RELATIVE
    HUMIDITY OBSERVATIONS.

INZ001>003-010>013-019-020-221400-
NORTHWEST INDIANA

CITY           SKY/WX    TMP DP  RH WIND       PRES   REMARKS
GARY /AIRPORT/ PTCLDY    66  54  63 S16       29.98R
MONTICELLO +   PTCLDY    61  53  74 S9        30.05R

$$

LMZ046-743>745-221400-
SOUTHERN LAKE MICHIGAN

STATION/POSITION TIME  TEMP    WIND        PRES    WAVE
                       AIR SEA DIR/SP/G            HT
                 (UTC) (F)     (DEG/KT/KT) (MB)    (FT)
BURNS HARBOR     1240   66     180/ 16/ 24 1015.6R
MICHIGAN CITY    1210   64     160/ 16/ 21   N/A
5NW MICH CITY    1250   63 58  180/ 16/ 23   N/A     2

$$

INZ004-005-014>016-021>024-221400-
NORTH CENTRAL INDIANA

CITY           SKY/WX    TMP DP  RH WIND       PRES   REMARKS
ELKHART        CLEAR     61  50  67 S10       30.06
GOSHEN         CLEAR     61  49  64 S13       30.09R
PERU/GRISSOM   PTCLDY    60  52  73 S12       30.09R
SOUTH BEND     CLEAR     61  52  72 SE12      30.06R

$$

INZ006>009-017-018-025>027-221400-
NORTHEAST INDIANA

CITY           SKY/WX    TMP DP  RH WIND       PRES   REMARKS
FORT WAYNE     CLOUDY    61  50  67 S14       30.13S
KENDALLVILLE + CLEAR     58  49  71 S8        30.12R

$$

INZ028-029-035-036-043>045-051>053-221400-
WEST CENTRAL INDIANA

CITY           SKY/WX    TMP DP  RH WIND       PRES   REMARKS
LAFAYETTE      CLOUDY    62  54  74 S9        30.04R
TERRE HAUTE    CLOUDY    64  54  69 S10       30.05S

$$

INZ030>032-037>040-046>048-054>057-064-065-221400-
CENTRAL INDIANA

CITY           SKY/WX    TMP DP  RH WIND       PRES   REMARKS
COLUMBUS       PTCLDY    57  46  67 S9        30.14R
GREENWOOD *+   CLOUDY    61  52  72 S9        30.13R
INDIANAPOLIS   CLOUDY    58  51  78 SE10      30.11S
-EAGLE CREEK   CLOUDY    60  50  69 SE7       30.11R
KOKOMO +       CLOUDY    60  51  72 S16       30.11R
MT COMFORT *+  MOCLDY    59  54  82 S10       30.13R
SHELBYVILLE    CLOUDY    61  49  64 S10       30.13R

$$

INZ033-034-041-042-049-050-058-059-221400-
EAST CENTRAL INDIANA

CITY           SKY/WX    TMP DP  RH WIND       PRES   REMARKS
MUNCIE         CLEAR     61  50  67 S7        30.14R
RICHMOND +     MOSUNNY   54  48  82 SE9       30.19R

$$

INZ060-061-067>069-081>083-085>088-221400-
SOUTHWEST INDIANA

CITY           SKY/WX    TMP DP  RH WIND       PRES   REMARKS
EVANSVILLE     CLOUDY    63  54  72 SE6       30.09R
HUNTINGBURG +  CLOUDY    62  53  72 SE12      30.11S

$$

INZ062-063-066-070>080-084-089>092-221400-
SOUTH CENTRAL AND SOUTHEAST INDIANA

CITY           SKY/WX    TMP DP  RH WIND       PRES   REMARKS
BLOOMINGTON    CLOUDY    60  50  69 S12       30.11R
MADISON *+     MOSUNNY   61  46  59 SE6       30.20R
SEYMOUR +      SUNNY     61  50  67 S7        30.15

$$





USA.gov is the U.S. government's official web portal to all federal, state and local government web resources and services.